This is the latest recevied weather packets stored in our database for station/object KD4UFD. If no packets are shown the sender has not sent any weather packets the latest 10 day(s).
| Time | Temp. | Humidity | Pressure | Rain* | Wind** | Luminosity | Snow |
|---|---|---|---|---|---|---|---|
| 1777584990 | 18.89° C | 50% | 1012.9 hPa | 0 mm | - | 371 W/m² | - |
| 1777584688 | 18.89° C | 45% | 1012.8 hPa | 0 mm | - | 385 W/m² | - |
| 1777584385 | 18.89° C | 46% | 1013.1 hPa | 0 mm | - | 314 W/m² | - |
| 1777584081 | 18.89° C | 45% | 1013.3 hPa | 0 mm | - | 448 W/m² | - |
| 1777583781 | 18.89° C | 45% | 1012.9 hPa | 0 mm | - | 455 W/m² | - |
| 1777583475 | 19.44° C | 47% | 1013.1 hPa | 0 mm | - | 478 W/m² | - |
| 1777583169 | 19.44° C | 46% | 1012.9 hPa | 0 mm | - | 413 W/m² | - |
| 1777582865 | 19.44° C | 44% | 1012.9 hPa | 0 mm | - | 403 W/m² | - |
| 1777582563 | 18.89° C | 46% | 1012.9 hPa | 0 mm | - | 518 W/m² | - |
| 1777582257 | 18.89° C | 47% | 1012.9 hPa | 0 mm | - | 423 W/m² | - |
| 1777581955 | 18.89° C | 49% | 1013.2 hPa | 0 mm | - | 372 W/m² | - |
| 1777581651 | 18.89° C | 47% | 1013.1 hPa | 0 mm | - | 479 W/m² | - |
| 1777581344 | 18.89° C | 47% | 1013 hPa | 0 mm | - | 341 W/m² | - |
| 1777581040 | 18.89° C | 48% | 1013.2 hPa | 0 mm | - | 528 W/m² | - |
| 1777580739 | 18.89° C | 49% | 1013.2 hPa | 0 mm | - | 399 W/m² | - |
| 1777580436 | 18.89° C | 49% | 1013.7 hPa | 0 mm | - | 494 W/m² | - |
| 1777580131 | 18.89° C | 49% | 1013.8 hPa | 0 mm | - | 506 W/m² | - |
| 1777579828 | 19.44° C | 45% | 1013.7 hPa | 0 mm | - | 413 W/m² | - |
| 1777579527 | 19.44° C | 50% | 1013.9 hPa | 0 mm | - | 521 W/m² | - |
| 1777579227 | 18.89° C | 51% | 1013.9 hPa | 0 mm | - | 466 W/m² | - |
| 1777578922 | 18.33° C | 55% | 1013.9 hPa | 0 mm | - | 410 W/m² | - |
| 1777578618 | 18.33° C | 52% | 1013.9 hPa | 0 mm | - | 406 W/m² | - |
| 1777578317 | 18.89° C | 50% | 1014 hPa | 0 mm | - | 426 W/m² | - |
| 1777578014 | 18.33° C | 49% | 1013.8 hPa | 0 mm | - | 429 W/m² | - |
| 1777577709 | 18.33° C | 50% | 1013.9 hPa | 0 mm | - | 440 W/m² | - |
* Rain latest hour (hover to see other rain measurements)
** Current wind speed in m/s (hover to see current wind gust speed)